[[{"header":{"parameterUnit":"m.s-1","parameterCategory":1,"la1":30.2991,"la2":30.254,"lo1":-89.0895,"lo2":-89.0444,"dy":0.0017,"dx":0.0017,"nx":28,"ny":28,"refTime":"2025-07-06T21:00:00:Z","depth":0,"parameterNumber":2,"parameterNumberName":"U-component_of_WINDS"},"data":[0,0,0,0,0,0,0,0,0,0,0,0,0,0,0,0,0,0,0,0,0,0,0,0,0,0,0,0,0,0,0,0,0,0,0,0,0,0,0,0,0,0,0,0,0,0,0,0,0,0,0,0,0,0,0,0,0,0,3.0626,3.0627,0,3.0745,3.0746,3.0747,3.0721,3.0719,3.0716,3.0714,3.0837,3.0842,3.0847,0,0,0,0,0,0,0,0,0,0,0,0,0,3.0375,3.038,3.0626,3.0627,3.0629,3.0744,3.0746,3.0748,3.0721,3.0719,3.0716,3.0713,3.0835,3.0841,3.0848,0,0,0,0,0,0,0,0,0,0,0,0,0,3.0488,3.0382,3.0625,3.0629,3.0631,3.0744,3.0746,3.0748,3.0722,3.0718,3.0715,3.0712,3.0833,3.0841,3.0849,3.0966,0,0,3.0873,3.0877,0,0,0,0,0,0,0,0,3.0482,3.0497,3.0627,3.0629,3.0631,3.0714,3.0703,3.0821,3.0723,3.0687,3.0714,3.071,3.0799,3.081,3.0839,3.0971,3.0976,3.0874,3.0879,3.0882,3.0885,0,0,0,0,0,0,0,3.0474,3.0492,3.0673,3.0629,3.0632,3.0625,3.0637,3.0725,3.0761,3.069,3.0689,3.0703,3.0799,3.0832,3.0842,3.0978,3.0874,3.0881,3.0886,3.0889,3.121,3.1213,0,0,0,0,0,0,3.0465,3.0486,3.0669,3.0676,3.0547,3.0632,3.0646,3.0691,3.076,3.0767,3.0706,3.0701,3.0819,3.0833,3.0846,3.0985,3.0882,3.089,3.0894,3.1206,3.121,3.1214,0,0,0,0,0,0,3.0459,3.0481,3.0664,3.0581,3.0604,3.064,3.0691,3.0695,3.0727,3.0771,3.0777,3.0732,3.0817,3.0835,3.0935,3.0989,3.0893,3.0901,3.1202,3.1207,3.1213,3.1266,0,0,0,0,0,0,3.0452,3.0479,3.0524,3.0582,3.0608,3.0752,3.0695,3.07,3.0741,3.0737,3.0798,3.0805,3.0816,3.0924,3.0943,3.0999,3.0907,3.1197,3.1204,3.1211,3.1259,3.1272,3.1284,0,0,0,0,0,3.0443,3.0535,3.0527,3.0549,3.0665,3.0755,3.077,3.0781,3.0746,3.0791,3.0819,3.0803,3.0981,3.0934,3.0956,3.1015,3.1194,3.1202,3.121,3.1254,3.127,3.1283,0,0,0,0,0,0,3.0484,3.0543,3.0534,3.0648,3.0696,3.075,3.0808,3.0798,3.0858,3.0851,3.0863,3.0877,3.0979,3.1007,3.0954,3.113,3.1082,3.1095,3.1108,3.1123,3.1135,3.1125,3.0914,0,0,0,0,0,3.0506,3.0574,3.0622,3.0717,3.0742,3.0771,3.0811,3.0815,3.0866,3.0887,3.0922,3.0972,3.1039,3.1083,3.1147,3.1264,3.1276,3.1315,3.1327,3.1337,3.1347,3.1409,3.1426,3.1242,3.1242,3.1242,0,0,3.0552,3.0593,3.0635,3.0727,3.0765,3.0834,3.0788,3.0865,3.0916,3.0898,3.0994,3.1022,3.1079,3.1188,3.1237,3.1214,3.1401,3.1347,3.1355,3.136,3.1419,3.1437,3.1452,3.1248,3.1247,3.1246,0,0,3.0672,3.071,3.0793,3.0832,3.089,3.0908,3.0928,3.0983,3.1001,3.1098,3.1085,3.1147,3.1262,3.1303,3.1338,3.1472,3.1458,3.1493,3.1555,3.1615,3.163,3.1643,3.1688,3.1704,3.1503,3.1504,3.1504,0,3.0722,3.0826,3.0836,3.0913,3.0953,3.0939,3.1022,3.106,3.1136,3.1164,3.1137,3.1281,3.1319,3.1435,3.1467,3.1497,3.1519,3.1485,3.1627,3.164,3.1652,3.1695,3.1713,3.1507,3.1507,3.1506,3.1506,0,3.0884,3.0956,3.1016,3.1089,3.1136,3.1215,3.1237,3.1283,3.1283,3.1304,3.1402,3.1447,3.1518,3.1547,3.1549,3.1663,3.1647,3.1624,3.1575,3.1673,3.1714,3.1731,3.1512,3.1511,3.151,3.1509,0,0,3.1032,3.1108,3.113,3.1162,3.1225,3.1281,3.1359,3.1429,3.1467,3.1521,3.1586,3.1684,3.1662,3.1702,3.1708,3.1761,3.1861,3.1731,3.1732,3.1751,3.1987,3.2003,3.2022,3.1853,3.1856,3.1859,3.1982,0,3.1155,3.1293,3.1304,3.1428,3.1493,3.1481,3.1549,3.1595,3.1616,3.1675,3.1699,3.1767,3.1735,3.1759,3.1811,3.1838,3.1908,3.1829,3.1912,3.1915,3.1896,3.2044,3.2061,3.2174,3.1998,3.2001,3.2003,0,3.1317,3.1374,3.1504,3.1555,3.1583,3.1645,3.1708,3.1765,3.1816,3.1828,3.1873,3.1871,3.1951,3.1901,3.201,3.1956,3.1991,3.2009,3.2014,3.202,3.1963,3.2052,3.2211,3.2227,3.2028,3.2026,3.2025,0,3.1409,3.1518,3.1609,3.1637,3.1701,3.1743,3.1772,3.1819,3.186,3.1916,3.1942,3.2007,3.2042,3.2092,3.2108,3.207,3.2216,3.2168,3.2227,3.2226,3.2256,3.2254,3.2421,3.2283,3.2283,3.2282,3.2282,0,3.1544,3.1624,3.1651,3.1707,3.1795,3.1807,3.1894,3.192,3.1962,3.2022,3.2017,3.2073,3.2092,3.2151,3.2164,3.2251,3.2268,3.2279,3.2281,3.2278,3.2276,3.23,3.2291,3.2287,3.2286,3.2285,3.2284,0,3.1661,3.1683,3.1781,3.1832,3.1847,3.1909,3.1953,3.2006,3.2027,3.2103,3.2121,3.2153,3.2223,3.2244,3.2328,3.2337,3.2438,3.2435,3.2421,3.242,3.2477,3.247,3.2663,3.2688,3.2535,3.2537,3.2538,0,3.1745,3.1806,3.1863,3.1902,3.1932,3.1996,3.2037,3.2051,3.2094,3.2155,3.2201,3.227,3.2325,3.2437,3.2468,3.2532,3.2528,3.2591,3.2538,3.2532,3.2526,3.2521,3.2526,3.2601,3.2602,3.2604,3.2605,0,3.1891,3.1898,3.1957,3.2019,3.2068,3.2118,3.2166,3.2199,3.222,3.2268,3.2338,3.2381,3.2467,3.2534,3.2599,3.2628,3.2619,3.2621,3.2638,3.2635,3.2623,3.2627,3.2445,3.2617,3.2615,3.2614,3.2614,3.2613,3.1992,3.2044,3.2092,3.2157,3.2195,3.2239,3.2291,3.2317,3.2376,3.2446,3.2451,3.2527,3.2575,3.2661,3.2693,3.2752,3.2734,3.2759,3.2764,3.277,3.2773,3.2615,3.2765,3.2764,3.2764,3.2764,3.2764,0,3.2135,3.2165,3.2225,3.2292,3.2343,3.233,3.2382,3.2426,3.2492,3.2538,3.2592,3.2672,3.2737,3.2773,3.2838,3.2878,3.2876,3.2894,3.289,3.2897,3.2787,3.2765,3.2895,3.2895,3.2895,3.2895,3.2895,3.2895,3.2216,3.2303,3.2315,3.242,3.2449,3.2523,3.2553,3.2594,3.263,3.272,3.2773,3.2796,3.2837,3.2904,3.2963,3.2972,3.2995,3.3015,3.3022,3.2918,3.2905,3.2892,3.2871,3.3021,3.3021,3.3126,3.3127,3.3128]},{"header":{"parameterUnit":"m.s-1","parameterCategory":1,"la1":30.2991,"la2":30.254,"lo1":-89.0895,"lo2":-89.0444,"dy":0.0017,"dx":0.0017,"nx":28,"ny":28,"refTime":"2025-07-06T21:00:00:Z","depth":0,"parameterNumber":3,"parameterNumberName":"V-component_of_WINDS"},"data":[0,0,0,0,0,0,0,0,0,0,0,0,0,0,0,0,0,0,0,0,0,0,0,0,0,0,0,0,0,0,0,0,0,0,0,0,0,0,0,0,0,0,0,0,0,0,0,0,0,0,0,0,0,0,0,0,0,0,0.7682,0.7682,0,0.7619,0.7619,0.7618,0.7564,0.7563,0.7562,0.7562,0.7498,0.7497,0.7496,0,0,0,0,0,0,0,0,0,0,0,0,0,0.7755,0.7754,0.7682,0.7682,0.7681,0.7619,0.7619,0.7618,0.7564,0.7563,0.7562,0.7562,0.7499,0.7497,0.7496,0,0,0,0,0,0,0,0,0,0,0,0,0,0.7711,0.7754,0.7682,0.7646,0.7643,0.762,0.7618,0.7617,0.7564,0.7563,0.7562,0.7561,0.7499,0.7497,0.7496,0.7504,0,0,0.7491,0.749,0,0,0,0,0,0,0,0,0.7713,0.7708,0.7653,0.7649,0.7645,0.7598,0.7621,0.7579,0.7564,0.7594,0.7562,0.7561,0.7532,0.7528,0.7518,0.7501,0.7498,0.749,0.7489,0.7489,0.7488,0,0,0,0,0,0,0,0.7717,0.7711,0.7657,0.7652,0.7647,0.7633,0.7626,0.7613,0.7569,0.7591,0.7587,0.758,0.753,0.752,0.7516,0.7497,0.749,0.7489,0.7488,0.7487,0.748,0.7481,0,0,0,0,0,0,0.7725,0.7714,0.7659,0.7656,0.7677,0.7633,0.7624,0.7614,0.7569,0.7561,0.7581,0.7578,0.7523,0.7518,0.7514,0.7518,0.7489,0.7487,0.7486,0.7479,0.748,0.7481,0,0,0,0,0,0,0.7727,0.7721,0.7662,0.7683,0.7675,0.7632,0.7621,0.7613,0.7603,0.7561,0.7553,0.7579,0.7522,0.7516,0.7506,0.7516,0.7486,0.7485,0.7478,0.748,0.7481,0.7529,0,0,0,0,0,0,0.7729,0.7722,0.7725,0.7684,0.7674,0.7656,0.7622,0.7613,0.76,0.7596,0.7557,0.755,0.7521,0.7509,0.7504,0.7513,0.7483,0.7477,0.7479,0.748,0.7527,0.7532,0.7537,0,0,0,0,0,0.7732,0.7742,0.7725,0.7719,0.7677,0.7656,0.7651,0.7617,0.7601,0.7604,0.7576,0.7551,0.7515,0.7508,0.7503,0.7511,0.7477,0.7478,0.748,0.7524,0.7531,0.7536,0,0,0,0,0,0,0.7786,0.7736,0.7717,0.7714,0.769,0.7647,0.7649,0.7625,0.7606,0.7602,0.7561,0.7553,0.7547,0.7528,0.7521,0.7515,0.7492,0.7493,0.7528,0.7534,0.7539,0.7543,0.7482,0,0,0,0,0,0.7797,0.7785,0.7742,0.7743,0.7732,0.7693,0.7683,0.7659,0.7632,0.7622,0.7594,0.7569,0.7552,0.7542,0.7524,0.7523,0.7513,0.7526,0.7531,0.7535,0.7537,0.7533,0.7538,0.7487,0.7487,0.7487,0,0,0.7821,0.7792,0.7787,0.7753,0.7732,0.7719,0.7685,0.7674,0.7664,0.762,0.7608,0.7587,0.7556,0.7551,0.7547,0.7534,0.7548,0.7538,0.7541,0.754,0.7535,0.754,0.7544,0.7489,0.7488,0.7488,0,0,0.7858,0.7835,0.7833,0.7811,0.7779,0.7752,0.7752,0.7712,0.7696,0.7683,0.765,0.7637,0.7609,0.7588,0.7574,0.76,0.7575,0.7595,0.7621,0.7618,0.7622,0.7626,0.7634,0.7637,0.7596,0.7597,0.7597,0,0.7891,0.7872,0.7835,0.7825,0.781,0.7769,0.7766,0.7747,0.771,0.7701,0.7687,0.7649,0.7626,0.7614,0.762,0.761,0.7608,0.76,0.7625,0.7628,0.763,0.7637,0.7641,0.7599,0.7599,0.7598,0.7598,0,0.7914,0.7901,0.7902,0.7867,0.7853,0.7847,0.7808,0.7797,0.7774,0.7749,0.7735,0.7705,0.768,0.7675,0.7653,0.7659,0.7652,0.7632,0.7609,0.7638,0.7644,0.7647,0.7603,0.7602,0.7601,0.76,0,0,0.7985,0.7927,0.7928,0.7911,0.7871,0.7859,0.785,0.7825,0.7816,0.7792,0.7782,0.7758,0.7739,0.7722,0.7697,0.7694,0.7715,0.7674,0.7673,0.7682,0.7719,0.7734,0.7738,0.7698,0.7699,0.7699,0.7721,0,0.8014,0.7996,0.7961,0.7953,0.794,0.7899,0.7891,0.7865,0.7841,0.7825,0.7798,0.7781,0.7757,0.7747,0.7742,0.7714,0.7722,0.7712,0.7689,0.7688,0.7698,0.7741,0.7757,0.778,0.7723,0.7724,0.7724,0,0.8047,0.8024,0.8015,0.7973,0.7966,0.796,0.7932,0.7918,0.7887,0.7869,0.785,0.7821,0.7809,0.7787,0.7768,0.7762,0.775,0.7734,0.7734,0.7731,0.7708,0.7738,0.7786,0.7789,0.7727,0.7727,0.7727,0,0.8098,0.8065,0.8054,0.8041,0.7993,0.7989,0.7968,0.7936,0.7922,0.7898,0.7888,0.7863,0.785,0.783,0.7795,0.7783,0.778,0.7756,0.7764,0.7765,0.7766,0.7766,0.7812,0.7759,0.7759,0.7759,0.7759,0,0.8135,0.8131,0.8076,0.807,0.8064,0.8023,0.8018,0.7993,0.7965,0.7953,0.7916,0.7905,0.7859,0.7843,0.7815,0.7803,0.7797,0.7782,0.7775,0.7785,0.7787,0.7777,0.7775,0.776,0.7759,0.7759,0.7759,0,0.8192,0.8155,0.8141,0.8096,0.8084,0.8081,0.8042,0.8034,0.8006,0.7991,0.7985,0.7942,0.7921,0.7883,0.7852,0.7833,0.7826,0.7814,0.7836,0.7832,0.7842,0.7841,0.7883,0.7885,0.7832,0.7832,0.7833,0,0.8218,0.8213,0.8167,0.8156,0.8136,0.8119,0.8104,0.8063,0.8049,0.8012,0.8008,0.7983,0.7962,0.7929,0.7894,0.7869,0.7856,0.7872,0.7852,0.7862,0.7855,0.7856,0.7854,0.7877,0.7878,0.7878,0.7879,0,0.8267,0.8248,0.8228,0.8201,0.8184,0.8161,0.8136,0.8129,0.8082,0.8068,0.8045,0.8027,0.7994,0.7969,0.7939,0.7917,0.789,0.7885,0.7885,0.7896,0.7909,0.7901,0.7848,0.7885,0.7884,0.7884,0.7883,0.7883,0.8308,0.8302,0.8268,0.8246,0.8222,0.8199,0.8188,0.8159,0.8139,0.8108,0.8085,0.8063,0.803,0.7986,0.7966,0.7948,0.7935,0.7937,0.7937,0.7937,0.7941,0.7912,0.7942,0.7942,0.7942,0.7942,0.7941,0,0.8355,0.8331,0.8311,0.8276,0.8258,0.8233,0.8204,0.819,0.8172,0.8143,0.8122,0.8094,0.807,0.8033,0.8005,0.7998,0.7984,0.7992,0.7992,0.7987,0.7954,0.7956,0.8003,0.8003,0.8003,0.8003,0.8003,0.8003,0.8377,0.8364,0.8341,0.8316,0.8291,0.8269,0.8254,0.8232,0.8209,0.818,0.8159,0.8134,0.8102,0.8071,0.8047,0.8037,0.8028,0.8039,0.8025,0.7995,0.7989,0.7984,0.7986,0.8038,0.8038,0.8059,0.8059,0.8059]}]]